Regional Weather Roundup
Issued by NWS

Home | Current Version | Previous Version | Text Only | Print | Product List | Glossary Off
Versions: 1 2 3 4 5 6 7 8 9 10 11 12 13 14 15 16 17 18 19 20 21 22 23 24 25 26 27 28 29 30 31 32 33 34 35 36 37 38 39 40 41 42 43 44 45 46 47 48 49 50

000
ASUS43 KLSX 181407
RWRMO

WEATHER SUMMARY FOR MISSOURI
NATIONAL WEATHER SERVICE SPRINGFIELD MO
900 AM CDT SAT APR 18 2015

NOTE: "FAIR" INDICATES FEW OR NO CLOUDS BELOW 12,000 FEET WITH NO
       SIGNIFICANT WEATHER AND/OR OBSTRUCTIONS TO VISIBILITY.
       CURRENT SKY AND/OR WEATHER CONDITIONS ARE NOT AVAILABLE FOR
       CHILLICOTHE AND FARMINGTON.

MOZ001>031-035>038-043-044-053-054-181500-
...NORTHERN AND WESTERN MISSOURI...

CITY           SKY/WX    TMP DP  RH WIND       PRES   REMARKS
KANSAS CTY INT CLOUDY    63  59  87 S8        29.90F
KANSAS C DTWN  CLOUDY    66  59  78 CALM      29.90F
LEE`S SUMMIT   CLOUDY    63  59  87 S8        29.92S
ST JOSEPH      CLOUDY    63  57  81 SE3       29.91S
CHILLICOTHE      N/A     65  59  81 SE7       29.94S
KIRKSVILLE     CLOUDY    62  59  90 SE7       29.97S

$$
MOZ066>068-077>081-088>096-101>105-181500-
...SOUTHWEST MISSOURI...

CITY           SKY/WX    TMP DP  RH WIND       PRES   REMARKS
SPRINGFIELD    CLOUDY    63  58  83 SE10      29.94S
JOPLIN         TSTM      60  59  96 VRB6      29.96R FOG

$$
MOZ032>034-039>042-045>050-055>058-069>072-181500-
...CENTRAL MISSOURI...

CITY           SKY/WX    TMP DP  RH WIND       PRES   REMARKS
COLUMBIA       CLOUDY    65  61  87 SE8       29.96F
JEFFERSON CITY CLOUDY    65  60  84 E8        29.95F
ROLLA          CLOUDY    61  60  97 SE5       29.97S FOG
SEDALIA        CLOUDY    67  60  78 SE9       29.94F
WHITEMAN AFB   CLOUDY    65  60  81 S7        29.92S
WARRENSBURG    CLOUDY    64  59  82 SE7       29.92S
OSAGE BEACH    CLOUDY    64  59  82 S9        29.96S

$$
MOZ051-052-059>065-181500-
...EAST CENTRAL MISSOURI...

CITY           SKY/WX    TMP DP  RH WIND       PRES   REMARKS
ST LOUIS INTL  CLOUDY    66  59  78 SE6       30.00F HAZE
SPIRIT OF STL  CLOUDY    65  59  81 CALM      29.98F
ST CHARLES     CLOUDY    65  58  78 CALM      29.99F HAZE

$$
MOZ072>076-082>087-097>100-106>115-181500-
...SOUTH CENTRAL AND SOUTHEAST MISSOURI...

CITY           SKY/WX    TMP DP  RH WIND       PRES   REMARKS
CAPE GIRARDEAU CLOUDY    63  62  97 E3        29.99S
FARMINGTON     PTSUNNY   63  61  94 CALM      30.03R
POPLAR BLUFF   CLOUDY    62  60  93 NE5       29.96F FOG
WEST PLAINS    CLOUDY    64  61  90 E3        29.99S

$$


USA.gov is the U.S. government's official web portal to all federal, state and local government web resources and services.